• MPC Preparation (Info)

  • MPEC 2002-C100: 2002 CZ58

    The following Minor Planet Electronic Circular may be linked-to from your own Web pages, but must not otherwise be redistributed electronically.

    A form allowing access to any MPEC is at the bottom of this page.


    Read MPEC 2002-C99 Read MPEC 2002-C101


    M.P.E.C. 2002-C100                               Issued 2002 Feb. 15, 01:16 UT
    
         The Minor Planet Electronic Circulars contain information on unusual
             minor planets and routine data on comets.  They are published
       on behalf of Commission 20 of the International Astronomical Union by the
              Minor Planet Center, Smithsonian Astrophysical Observatory,
                              Cambridge, MA 02138, U.S.A.
    
                 Prepared using the Tamkin Foundation Computer Network
    
                                  MPC@CFA.HARVARD.EDU
              URL http://cfa-www.harvard.edu/iau/mpc.html  ISSN 1523-6714
    
                                       2002 CZ58
    
    Observations:
         K02C58Z* C2002 02 12.38364 09 10 26.96 +37 31 15.6          19.5        644
         K02C58Z  C2002 02 12.40455 09 10 24.45 +37 30 29.8          20.1        644
         K02C58Z  C2002 02 12.42569 09 10 21.95 +37 29 43.1          19.7        644
         K02C58Z  C2002 02 13.19146 09 08 58.21 +37 01 58.6          19.2 R      711
         K02C58Z  C2002 02 13.19623 09 08 57.60 +37 01 48.0          19.1 R      711
         K02C58Z  C2002 02 13.20099 09 08 57.08 +37 01 39.0          19.0 R      711
         K02C58Z  C2002 02 13.30118 09 08 45.38 +36 57 58.8          19.2 R      649
         K02C58Z  C2002 02 13.30506 09 08 44.91 +36 57 50.9          19.0 R      649
         K02C58Z  C2002 02 13.31125 09 08 44.11 +36 57 36.9          19.0 R      649
         K02C58Z  C2002 02 14.19164 09 07 11.87 +36 25 56.4                      711
         K02C58Z  C2002 02 14.19638 09 07 11.28 +36 25 45.3          18.7 R      711
         K02C58Z  C2002 02 14.20113 09 07 10.71 +36 25 34.8          18.9 R      711
         K02C58Z  C2002 02 14.22468 09 07 07.92 +36 24 41.8          18.6 R      649
         K02C58Z  C2002 02 14.22722 09 07 07.76 +36 24 36.8          18.6 R      649
         K02C58Z  C2002 02 14.22963 09 07 07.40 +36 24 31.8          18.5 R      649
         K02C58Z  C2002 02 14.23204 09 07 07.14 +36 24 26.3          18.7 R      649
         K02C58Z  C2002 02 14.88218 09 06 01.18 +36 01 04.2          18.1 R      118
         K02C58Z  C2002 02 14.88536 09 06 00.86 +36 00 57.5                      118
         K02C58Z  C2002 02 14.88846 09 06 00.46 +36 00 52.1                      118
         K02C58Z  C2002 02 14.89063 09 06 00.38 +36 00 47.5                      118
         K02C58Z  C2002 02 14.93734 09 05 55.39 +35 59 09.9          18.4 R      046
         K02C58Z  C2002 02 14.94487 09 05 54.80 +35 58 49.3          18.5 R      046
         K02C58Z  C2002 02 14.94800 09 05 54.48 +35 58 47.2          18.4 R      046
         K02C58Z  C2002 02 14.94943 09 05 54.27 +35 58 41.6          18.3 R      046
    
    Observer details:
    046 Klet.  Observers M. Tichy, M. Kocer.  0.57-m f/5.2 reflector + CCD.
    118 Modra.  Observers A. Galad, L. Kornos.  0.6-m f/5.5 reflector + CCD.
    644 Palomar Mountain/NEAT.  Observers E. F. Helin, S. Pravdo, K. Lawrence,
        M. Hicks, E. Hovland, T. Bickler, J. Schroeder, L. Scherr, R. Thicksten,
        A. Deetz.  1.2-m Schmidt + CCD.
    649 Powell Observatory, Louisburg.  Observers K. Smalley, R. Fredrick,
        R. Trentman.  0.75-m Newtonian + CCD.
    711 McDonald Observatory.  Observer P. J. Shelus.  0.76-m reflector + CCD.
    
    Orbital elements:
    2002 CZ58
    Epoch 2002 Jan. 26.0 TT = JDT 2452300.5                 MPC
    M  20.78611              (2000.0)            P               Q
    n   0.29463790     Peri.   88.14525     +0.36044381     -0.92564459
    a   2.2367132      Node   339.52513     +0.66990071     +0.34279352
    e   0.4739014      Incl.   19.22183     +0.64908651     +0.16023325
    P   3.35           H   18.7           G   0.15
    From 22 observations 2002 Feb. 12-14.
    
    Ephemeris:
    2002 CZ58                a,e,i = 2.24, 0.47, 19                  q = 1.1767
    Date    TT    R. A. (2000) Decl.     Delta      r     Elong.  Phase     V
    2002 02 15    09 05.82   +35 57.0    0.552    1.505   154.5    16.4    19.2
    2002 02 25    08 53.47   +30 18.2    0.631    1.564   148.9    19.1    19.6
    2002 03 07    08 48.32   +25 27.1    0.730    1.625   140.8    22.7    20.2
    2002 03 17    08 48.60   +21 25.3    0.847    1.686   132.5    25.8    20.7
    2002 03 27    08 52.91   +18 04.8    0.978    1.748   124.5    28.1    21.1
    2002 04 06    09 00.09   +15 15.7    1.120    1.810   117.1    29.5    21.5
    2002 04 16    09 09.34   +12 49.0    1.272    1.871   110.1    30.2    21.9
    
    Brian G. Marsden             (C) Copyright 2002 MPC           M.P.E.C. 2002-C100
    

    Read MPEC 2002-C99 Read MPEC 2002-C101


    MPEC number:

    Enter an MPEC number in one of the following forms:

    • 1997-B01 (the full form)
    • J97B01 (the packed version of the full form)
    • B01 (the abbreviated form)